• In Deutschland
  • Länderverzeichnis
  • Für 7 Tage
  • Wassertemperatur
  • Satellitenkarten
  • Wetterkarte
  • Widgets
  • user-avatar
    Anmelden

    Stündliche Wetter Ibigs

    Heute, 20 August, Sonntag

    Zeit Temperatur Niederschläge Wind Luftdruck Luftfeuchtigkeit
    00:00 +21°C° 0,3 mm 1 m/S 649 mmHg 75%
    01:00 +20°C° 0,3 mm 1 m/S 648 mmHg 76%
    02:00 +20°C° 0 mm 1 m/S 648 mmHg 76%
    03:00 +20°C° 0 mm 1 m/S 648 mmHg 75%
    04:00 +20°C° 0 mm 1 m/S 648 mmHg 75%
    05:00 +20°C° 0 mm 1 m/S 648 mmHg 73%
    06:00 +18°C° 0 mm 0 m/S 649 mmHg 72%
    07:00 +19°C° 0 mm 0 m/S 649 mmHg 70%
    08:00 +23°C° 0 mm 1 m/S 650 mmHg 62%
    09:00 +25°C° 0 mm 1 m/S 650 mmHg 54%
    10:00 +26°C° 0 mm 2 m/S 651 mmHg 46%
    11:00 +28°C° 0 mm 2 m/S 650 mmHg 43%
    12:00 +29°C° 0 mm 2 m/S 650 mmHg 40%
    13:00 +30°C° 0 mm 2 m/S 650 mmHg 37%
    14:00 +30°C° 0 mm 2 m/S 649 mmHg 38%
    15:00 +30°C° 0 mm 2 m/S 649 mmHg 38%
    16:00 +30°C° 0 mm 2 m/S 649 mmHg 38%
    17:00 +27°C° 0,3 mm 2 m/S 648 mmHg 44%
    18:00 +25°C° 0,3 mm 2 m/S 648 mmHg 51%
    19:00 +23°C° 0,3 mm 1 m/S 648 mmHg 58%
    20:00 +22°C° 0,3 mm 1 m/S 649 mmHg 57%
    21:00 +22°C° 0,3 mm 1 m/S 649 mmHg 57%
    22:00 +21°C° 0,3 mm 1 m/S 650 mmHg 57%
    23:00 +21°C° 0,1 mm 1 m/S 650 mmHg 57%

    Morgen, 21 August, Montag

    Zeit Temperatur Niederschläge Wind Luftdruck Luftfeuchtigkeit
    00:00 +20°C° 0,1 mm 1 m/S 649 mmHg 57%
    01:00 +20°C° 0,1 mm 1 m/S 649 mmHg 57%
    02:00 +20°C° 0 mm 1 m/S 649 mmHg 56%
    03:00 +19°C° 0 mm 1 m/S 649 mmHg 56%
    04:00 +19°C° 0 mm 1 m/S 649 mmHg 55%
    05:00 +20°C° 0 mm 1 m/S 649 mmHg 55%
    06:00 +20°C° 0 mm 1 m/S 650 mmHg 54%
    07:00 +21°C° 0 mm 1 m/S 650 mmHg 53%
    08:00 +23°C° 0 mm 1 m/S 651 mmHg 50%
    09:00 +24°C° 0 mm 2 m/S 651 mmHg 46%
    10:00 +26°C° 0 mm 2 m/S 652 mmHg 42%
    11:00 +28°C° 0 mm 2 m/S 651 mmHg 39%
    12:00 +29°C° 0 mm 2 m/S 651 mmHg 36%
    13:00 +30°C° 0 mm 3 m/S 651 mmHg 33%
    14:00 +30°C° 0 mm 3 m/S 650 mmHg 33%
    15:00 +30°C° 0 mm 3 m/S 650 mmHg 33%
    16:00 +30°C° 0 mm 3 m/S 649 mmHg 34%
    17:00 +27°C° 0 mm 2 m/S 649 mmHg 39%
    18:00 +25°C° 0 mm 2 m/S 650 mmHg 45%
    19:00 +23°C° 0 mm 2 m/S 650 mmHg 50%
    20:00 +21°C° 0,1 mm 2 m/S 650 mmHg 51%
    21:00 +22°C° 0,1 mm 1 m/S 651 mmHg 51%
    22:00 +22°C° 0,1 mm 1 m/S 651 mmHg 52%
    23:00 +21°C° 0 mm 1 m/S 651 mmHg 53%

    übermorgen, 22 August, Dienstag

    Zeit Temperatur Niederschläge Wind Luftdruck Luftfeuchtigkeit
    00:00 +21°C° 0 mm 1 m/S 650 mmHg 55%
    01:00 +21°C° 0 mm 1 m/S 650 mmHg 57%
    02:00 +20°C° 0 mm 1 m/S 650 mmHg 58%
    03:00 +20°C° 0 mm 1 m/S 649 mmHg 59%
    04:00 +19°C° 0 mm 1 m/S 649 mmHg 59%
    05:00 +20°C° 0 mm 1 m/S 650 mmHg 57%
    06:00 +20°C° 0 mm 1 m/S 650 mmHg 55%
    07:00 +21°C° 0 mm 1 m/S 651 mmHg 53%
    08:00 +23°C° 0 mm 2 m/S 651 mmHg 47%
    09:00 +26°C° 0 mm 2 m/S 652 mmHg 40%
    10:00 +28°C° 0 mm 3 m/S 652 mmHg 33%
    11:00 +29°C° 0 mm 3 m/S 652 mmHg 31%
    12:00 +30°C° 0 mm 3 m/S 651 mmHg 29%
    13:00 +33°C° 0 mm 3 m/S 651 mmHg 27%
    14:00 +31°C° 0 mm 3 m/S 650 mmHg 28%
    15:00 +31°C° 0 mm 3 m/S 650 mmHg 29%
    16:00 +31°C° 0 mm 3 m/S 649 mmHg 29%
    17:00 +28°C° 0 mm 2 m/S 649 mmHg 36%
    18:00 +26°C° 0 mm 2 m/S 649 mmHg 43%
    19:00 +23°C° 0 mm 2 m/S 649 mmHg 49%
    20:00 +23°C° 0 mm 2 m/S 649 mmHg 49%
    21:00 +21°C° 0 mm 2 m/S 650 mmHg 48%
    22:00 +20°C° 0 mm 2 m/S 650 mmHg 48%
    23:00 +21°C° 0 mm 1 m/S 650 mmHg 48%

    23 August, Mittwoch

    Zeit Temperatur Niederschläge Wind Luftdruck Luftfeuchtigkeit
    00:00 +21°C° 0 mm 1 m/S 650 mmHg 47%
    01:00 +20°C° 0 mm 1 m/S 649 mmHg 47%
    02:00 +20°C° 0 mm 1 m/S 649 mmHg 48%
    03:00 +20°C° 0 mm 1 m/S 649 mmHg 50%
    04:00 +20°C° 0 mm 1 m/S 648 mmHg 51%
    05:00 +20°C° 0 mm 1 m/S 649 mmHg 51%
    06:00 +21°C° 0 mm 1 m/S 649 mmHg 52%
    07:00 +21°C° 0 mm 1 m/S 650 mmHg 52%
    08:00 +23°C° 0 mm 1 m/S 650 mmHg 48%
    09:00 +25°C° 0 mm 1 m/S 651 mmHg 44%
    10:00 +27°C° 0 mm 2 m/S 651 mmHg 39%
    11:00 +28°C° 0 mm 2 m/S 650 mmHg 37%
    12:00 +30°C° 0 mm 2 m/S 650 mmHg 35%
    13:00 +31°C° 0 mm 2 m/S 649 mmHg 32%
    14:00 +30°C° 0 mm 2 m/S 649 mmHg 34%
    15:00 +30°C° 0 mm 2 m/S 648 mmHg 35%
    16:00 +29°C° 0 mm 1 m/S 648 mmHg 36%
    17:00 +27°C° 0 mm 1 m/S 648 mmHg 42%
    18:00 +25°C° 0 mm 1 m/S 648 mmHg 47%
    19:00 +23°C° 0 mm 1 m/S 648 mmHg 53%
    20:00 +22°C° 0,2 mm 1 m/S 648 mmHg 53%
    21:00 +22°C° 0,2 mm 1 m/S 649 mmHg 53%
    22:00 +21°C° 0,2 mm 1 m/S 649 mmHg 54%
    23:00 +21°C° 0,1 mm 1 m/S 649 mmHg 55%

    24 August, Donnerstag

    Zeit Temperatur Niederschläge Wind Luftdruck Luftfeuchtigkeit
    00:00 +20°C° 0,1 mm 1 m/S 649 mmHg 56%
    01:00 +20°C° 0,1 mm 1 m/S 648 mmHg 57%
    02:00 +20°C° 0 mm 1 m/S 648 mmHg 57%
    03:00 +20°C° 0 mm 1 m/S 648 mmHg 58%
    04:00 +19°C° 0 mm 1 m/S 648 mmHg 58%
    05:00 +20°C° 0 mm 1 m/S 648 mmHg 57%
    06:00 +20°C° 0 mm 1 m/S 649 mmHg 56%
    07:00 +21°C° 0 mm 1 m/S 649 mmHg 54%
    08:00 +23°C° 0 mm 1 m/S 650 mmHg 50%
    09:00 +24°C° 0 mm 1 m/S 650 mmHg 46%
    10:00 +26°C° 0 mm 1 m/S 651 mmHg 42%
    11:00 +27°C° 0 mm 2 m/S 650 mmHg 41%
    12:00 +28°C° 0 mm 2 m/S 650 mmHg 39%
    13:00 +29°C° 0 mm 2 m/S 650 mmHg 38%
    14:00 +29°C° 0 mm 2 m/S 649 mmHg 38%
    15:00 +29°C° 0 mm 2 m/S 649 mmHg 39%
    16:00 +28°C° 0 mm 1 m/S 648 mmHg 39%
    17:00 +26°C° 0,1 mm 1 m/S 648 mmHg 45%
    18:00 +24°C° 0,1 mm 1 m/S 648 mmHg 50%
    19:00 +23°C° 0,1 mm 1 m/S 649 mmHg 56%
    20:00 +22°C° 0,2 mm 1 m/S 649 mmHg 57%
    21:00 +22°C° 0,2 mm 1 m/S 649 mmHg 58%
    22:00 +21°C° 0,2 mm 1 m/S 650 mmHg 59%
    23:00 +21°C° 0,1 mm 1 m/S 649 mmHg 60%

    25 August, Freitag

    Zeit Temperatur Niederschläge Wind Luftdruck Luftfeuchtigkeit
    00:00 +20°C° 0,1 mm 1 m/S 649 mmHg 60%
    01:00 +20°C° 0,1 mm 1 m/S 649 mmHg 61%
    02:00 +20°C° 0 mm 1 m/S 648 mmHg 61%
    03:00 +20°C° 0 mm 1 m/S 648 mmHg 62%
    04:00 +19°C° 0 mm 1 m/S 648 mmHg 62%
    05:00 +20°C° 0 mm 1 m/S 649 mmHg 61%
    06:00 +20°C° 0 mm 1 m/S 649 mmHg 60%
    07:00 +20°C° 0 mm 1 m/S 650 mmHg 59%
    08:00 +22°C° 0 mm 1 m/S 650 mmHg 54%
    09:00 +24°C° 0 mm 1 m/S 651 mmHg 50%
    10:00 +25°C° 0 mm 1 m/S 651 mmHg 46%
    11:00 +26°C° 0 mm 2 m/S 651 mmHg 43%
    12:00 +27°C° 0 mm 2 m/S 650 mmHg 41%
    13:00 +28°C° 0 mm 2 m/S 650 mmHg 38%
    14:00 +28°C° 0 mm 2 m/S 649 mmHg 39%
    15:00 +28°C° 0 mm 2 m/S 649 mmHg 39%
    16:00 +28°C° 0 mm 2 m/S 649 mmHg 40%
    17:00 +26°C° 0 mm 1 m/S 649 mmHg 46%
    18:00 +24°C° 0 mm 1 m/S 649 mmHg 52%
    19:00 +22°C° 0 mm 1 m/S 649 mmHg 58%
    20:00 +22°C° 0,1 mm 1 m/S 649 mmHg 57%
    21:00 +21°C° 0,1 mm 1 m/S 650 mmHg 57%
    22:00 +21°C° 0,1 mm 1 m/S 650 mmHg 57%
    23:00 +20°C° 0,1 mm 1 m/S 650 mmHg 57%
    Mehr zeigen